Location: Unspecified
(0.0000°N, 0.0000°E)
Time: 17:24:07
(UTC+02:00)

ARIANE DEB (SPELDA) - Visible Passes

Search period start: 29 May 2016 00:00
Search period end: 08 June 2016 00:00
Orbit: 310 x 33033 km, 3.7° (Epoch: 28 May)

Date Brightness Start Highest point End Pass type
(mag) Time Alt. Az. Time Alt. Az. Time Alt. Az.
29 May 5.4 13:57:39 10° W 15:46:20 57° W 22:47:53 69° SE visible
31 May 5.4 14:24:17 10° W 16:10:33 49° W 23:10:13 77° SSW visible
02 Jun 5.6 14:51:54 10° W 16:34:24 42° W 23:32:28 64° WSW visible
04 Jun 5.4 04:56:39 20° E 04:56:39 20° E 04:59:46 10° E visible
04 Jun 5.9 15:21:00 10° W 16:57:49 34° W 23:54:37 48° WSW visible
06 Jun 4.5 05:18:38 38° E 05:18:38 38° E 05:26:03 10° E visible
06 Jun 6.2 15:52:32 10° W 17:20:50 27° W 00:16:39 35° WSW visible
